Flag for Spain Weather past 2 weeks in Barcelona, Barcelona, Spain

Now
50 °F

Scattered clouds.


Feels Like: 47 °F
Forecast: 43 / 58 °F
Wind: 7 mph from Northwest

Location: Barcelona Airport

Current Time: Mar 4, 2015 at 8:50:34 AM

Latest Report: Mar 4, 2015 at 8:00 AM


Visibility: N/A

Pressure: 30.24 "Hg

Humidity: 82%

Dew point: 45 °F

Location of BarcelonaLocation

Historic Weather in Barcelona — Graph

°F

Barcelona temperature yesterday

Maximum temperature yesterday: 61 °F (at 11:00 AM)
Minimum temperature yesterday: 50 °F (at 6:30 AM)
Average temperature yesterday: 56 °F

Past Weeks' High & Low Weather Summary

 TemperatureHumidityPressure
High72 °F (Mar 2, 3:30 PM)94% (Feb 24, 4:30 AM)30.54 "Hg (Feb 24, 4:30 AM)
Low39 °F (Feb 20, 6:30 AM)13% (Feb 22, 4:00 PM)29.59 "Hg (Feb 21, 2:30 PM)
Average52 °F66%30.08 "Hg
* Reported Feb 17 8:00 AM — Mar 4 8:00 AM, Barcelona, Weather by CustomWeather, © 2015

Note: Actual official high and low records may vary slightly from our data, if they occured in-between our weather recording intervals... More about our weather records

Advertising

Barcelona weather history for previous 24 hours

 ConditionsComfort  
Time TempWeatherWind HumidityBarometerVisibility
8:00 AM
Wed, Mar 4
50 °FScattered clouds.7 mph82%30.24 "HgN/A
7:30 AM50 °FPassing clouds.8 mph82%30.24 "HgN/A
7:00 AM50 °FPassing clouds.7 mph82%30.24 "HgN/A
6:30 AM50 °FPassing clouds.6 mph82%30.24 "HgN/A
6:00 AM50 °FPassing clouds.7 mph82%30.21 "HgN/A
5:30 AM50 °FPassing clouds.5 mph82%30.21 "HgN/A
5:00 AM50 °FPassing clouds.6 mph82%30.21 "HgN/A
4:30 AM50 °FPassing clouds.7 mph82%30.21 "HgN/A
4:00 AM50 °FPassing clouds.9 mph82%30.21 "HgN/A
3:30 AM50 °FPassing clouds.7 mph82%30.24 "HgN/A
3:00 AM52 °FPassing clouds.8 mph77%30.24 "HgN/A
2:30 AM52 °FPassing clouds.7 mph77%30.24 "HgN/A
2:00 AM52 °FPassing clouds.7 mph77%30.27 "HgN/A
1:30 AM52 °FPassing clouds.7 mph77%30.27 "HgN/A
1:00 AM52 °FPassing clouds.5 mph77%30.27 "HgN/A
12:30 AM52 °FPassing clouds.5 mph77%30.27 "HgN/A
12:00 AM52 °FPassing clouds.5 mph77%30.27 "HgN/A
11:30 PM
Tue, Mar 3
54 °FPassing clouds.2 mph72%30.27 "HgN/A
11:00 PM54 °FPassing clouds.3 mph77%30.27 "HgN/A
10:30 PM55 °FPassing clouds.5 mph77%30.27 "HgN/A
10:00 PM55 °FPassing clouds.6 mph82%30.27 "HgN/A
9:30 PM57 °FPassing clouds.No wind72%30.24 "HgN/A
9:00 PM57 °FPassing clouds.3 mph77%30.27 "HgN/A
8:30 PM55 °FPassing clouds.3 mph82%30.24 "HgN/A
8:00 PM57 °FPassing clouds.2 mph77%30.24 "HgN/A
7:30 PM57 °FPassing clouds.No wind72%30.24 "HgN/A
7:00 PM57 °FPassing clouds.2 mph72%30.24 "HgN/A
6:30 PM57 °FPassing clouds.2 mph72%30.24 "HgN/A
6:00 PM59 °FPassing clouds.3 mph63%30.24 "HgN/A
5:30 PM61 °FPassing clouds.3 mph55%30.24 "HgN/A
5:00 PM61 °FPassing clouds.3 mph63%30.24 "HgN/A
4:30 PM61 °FPassing clouds.6 mph63%30.24 "HgN/A
4:00 PM61 °FPassing clouds.5 mph63%30.24 "HgN/A
3:30 PM61 °FPassing clouds.6 mph63%30.24 "HgN/A
3:00 PM61 °FPassing clouds.6 mph63%30.27 "HgN/A
2:30 PM59 °FPassing clouds.6 mph68%30.27 "HgN/A
2:00 PM61 °FPassing clouds.6 mph68%30.27 "HgN/A
1:30 PM59 °FPassing clouds.5 mph72%30.27 "HgN/A
1:00 PM59 °FPassing clouds.6 mph72%30.30 "HgN/A
12:30 PM61 °FPassing clouds.6 mph68%30.30 "HgN/A
12:00 PM59 °FPassing clouds.5 mph72%30.30 "HgN/A
11:30 AM61 °FScattered clouds.5 mph68%30.30 "HgN/A
11:00 AM61 °FScattered clouds.5 mph72%30.30 "HgN/A
10:30 AM59 °FPassing clouds.5 mph72%30.30 "HgN/A
10:00 AM59 °FPassing clouds.2 mph72%30.30 "HgN/A
9:30 AM57 °FPassing clouds.3 mph77%30.30 "HgN/A
9:00 AM54 °FPassing clouds.5 mph88%30.30 "HgN/A
8:30 AM54 °FPassing clouds.5 mph88%30.30 "HgN/A
8:00 AM50 °FScattered clouds.3 mph94%30.27 "HgN/A
Weather by CustomWeather, © 2015

See weather overviewHow to use our weather pages